Location: Observatoire du C�gep de Trois-Rivi�res � Champlain
(46.4753°N, 72.3231°W)
Time: 21:36:12
(UTC-05:00)

Amateur Radio Satellites - All Passes

Search period start: 16 December 2017 21:06
Search period end: 17 December 2017 21:06
Location: Observatoire du C�gep de Trois-Rivi�res � Champlain, 46.4753°N, 72.3231°W

Satellite Date Start Highest point End Downlink Frequencies (MHz)
Time Altitude Azimuth
BEESAT 3 16 Dec 21:13:10 21:15:59 18° 324° (NW) 21:18:49 437.485
PCSat 16 Dec 21:17:50 21:19:29 11° 339° (NNW) 21:21:08 145.827
Max Valier Satellite 16 Dec 21:20:17 21:23:37 33° 263° (W) 21:27:00 145.860
SO-50 16 Dec 21:31:30 21:35:01 21° 34° (NE) 21:38:35 436.795
AO-85 16 Dec 21:35:31 21:39:27 90° 125° (SE) 21:43:40 145.980
DELFI C3 16 Dec 21:40:57 21:43:32 16° 269° (W) 21:46:07 145.870
EO-88 16 Dec 21:42:57 21:46:03 26° 265° (W) 21:49:12 145.990 - 145.960
BEESAT 2 16 Dec 21:58:33 22:01:38 20° 322° (NW) 22:04:44 435.950
FO-29 16 Dec 22:02:27 22:07:55 26° 304° (NW) 22:12:56 435.910
VELOX 1 16 Dec 22:04:18 22:05:10 10° 56° (NE) 22:06:02 145.980
FALCONSAT 3 16 Dec 22:04:44 22:06:35 13° 171° (S) 22:08:25 435.103
LO-87 16 Dec 22:05:09 22:08:40 72° 74° (ENE) 22:12:12 145.935 - 145.965
ESTCUBE 1 16 Dec 22:13:38 22:18:07 69° 73° (ENE) 22:22:39 437.505/2401.250
PRISM 16 Dec 22:22:28 22:26:32 57° 101° (E) 22:30:33 437.425
SPROUT 16 Dec 22:23:36 22:26:55 23° 65° (ENE) 22:30:14 437.525
TIGRISAT 16 Dec 22:24:00 22:28:08 45° 289° (WNW) 22:32:21 435.000
AIST 2D 16 Dec 22:26:26 22:29:23 24° 95° (E) 22:32:17 435.315
UNISAT 6 16 Dec 22:28:03 22:32:05 38° 291° (WNW) 22:36:10 437.425
EO-79 16 Dec 22:37:31 22:38:57 11° 88° (E) 22:40:23 145.935-145.965
RS-15 16 Dec 22:59:30 23:11:25 84° 237° (WSW) 23:22:39 29.354- 29.394
POLYITAN 1 16 Dec 22:59:46 23:02:55 20° 93° (E) 23:06:03 437.675
SO-50 16 Dec 23:11:22 23:16:03 83° 235° (SW) 23:20:47 436.795
AO-85 16 Dec 23:17:50 23:20:31 17° 328° (NNW) 23:23:20 145.980
QB50P2 16 Dec 23:25:05 23:29:05 40° 98° (E) 23:33:05 145.880/145.840
DUCHIFAT 1 16 Dec 23:26:23 23:30:03 29° 96° (E) 23:33:43 145.980
VELOX 1 16 Dec 23:36:22 23:40:49 78° 76° (ENE) 23:45:17 145.980
FALCONSAT 3 16 Dec 23:42:51 23:44:52 14° 186° (S) 23:46:51 435.103
ESTCUBE 1 16 Dec 23:53:04 23:55:24 14° 271° (W) 23:57:45 437.505/2401.250
NANOSAT C BR1 16 Dec 23:53:56 23:58:08 65° 102° (ESE) 00:02:19 145.865
BUGSAT 1 16 Dec 23:58:03 00:00:28 15° 91° (E) 00:02:53 437.445
SPROUT 16 Dec 23:58:38 00:02:35 38° 262° (W) 00:06:34 437.525
PRISM 16 Dec 23:58:56 00:01:21 15° 299° (WNW) 00:03:46 437.425
AIST 2D 16 Dec 23:59:32 00:02:28 24° 292° (WNW) 00:05:23 435.315
50 SAT 17 Dec 00:01:19 00:03:59 25° 69° (ENE) 00:06:39 437.505
UKube-1 17 Dec 00:04:20 00:07:46 23° 64° (ENE) 00:11:13 .
EO-79 17 Dec 00:10:59 00:15:12 73° 285° (WNW) 00:19:24 145.935-145.965
DX 1 17 Dec 00:24:21 00:28:38 57° 71° (ENE) 00:32:56 434.975-435.025
POLYITAN 1 17 Dec 00:34:53 00:38:52 41° 290° (WNW) 00:42:51 437.675
YUBILEINY 17 Dec 00:35:28 00:39:41 14° 71° (ENE) 00:43:54 435.215
Gurwin Techsat 1B 17 Dec 00:38:28 00:42:22 20° 91° (E) 00:46:14 435.225
PCSat 17 Dec 00:47:58 00:51:34 17° 32° (NNE) 00:55:08 145.827
SO-50 17 Dec 00:54:10 00:55:47 12° 252° (WSW) 00:57:24 436.795
AO-91 17 Dec 01:00:40 01:03:47 31° 97° (E) 01:06:50 145.960
QB50P2 17 Dec 01:01:24 01:04:38 22° 296° (WNW) 01:07:52 145.880/145.840
DUCHIFAT 1 17 Dec 01:02:03 01:05:40 29° 293° (WNW) 01:09:17 145.980
BEESAT 17 Dec 01:02:47 01:05:54 18° 60° (ENE) 01:09:03 436.000
RS-15 17 Dec 01:13:36 01:21:56 24° 261° (W) 01:30:01 29.354- 29.394
Oscar 19 17 Dec 01:15:13 01:20:21 55° 101° (E) 01:25:27 437.125/150
VELOX 1 17 Dec 01:16:06 01:17:48 12° 272° (W) 01:19:30 145.980
NANOSAT C BR1 17 Dec 01:31:02 01:33:20 15° 299° (WNW) 01:35:38 145.865
ITUPSAT 1 17 Dec 01:31:38 01:35:45 30° 65° (ENE) 01:39:53 437.325
BUGSAT 1 17 Dec 01:32:11 01:36:06 51° 288° (WNW) 01:40:03 437.445
50 SAT 17 Dec 01:33:40 01:35:55 18° 266° (W) 01:38:10 437.505
UKube-1 17 Dec 01:39:31 01:43:34 39° 262° (W) 01:47:39 .
CUBESAT XI-V 17 Dec 01:49:49 01:52:55 18° 61° (ENE) 01:56:02 437.345
MOZHAYETS 4 17 Dec 01:55:01 01:59:31 67° 74° (ENE) 02:04:05
DX 1 17 Dec 02:02:28 02:05:09 16° 269° (W) 02:07:53 434.975-435.025
BEESAT 3 17 Dec 02:11:24 02:14:04 17° 35° (NE) 02:16:42 437.485
Gurwin Techsat 1B 17 Dec 02:17:28 02:22:43 61° 289° (WNW) 02:27:56 435.225
YUBILEINY 17 Dec 02:25:59 02:34:42 69° 93° (E) 02:43:29 435.215
PCSat 17 Dec 02:30:34 02:36:00 68° 55° (NE) 02:41:23 145.827
ITAMSAT 1 17 Dec 02:33:57 02:37:28 18° 91° (E) 02:40:57 435.822/435.867
AO-7 17 Dec 02:34:32 02:42:02 35° 96° (E) 02:49:27 .
AO-91 17 Dec 02:37:49 02:40:04 16° 296° (WNW) 02:42:16 145.960
BEESAT 17 Dec 02:38:28 02:43:11 66° 258° (WSW) 02:47:56 436.000
Oscar 19 17 Dec 02:55:15 02:59:17 23° 299° (WNW) 03:03:19 437.125/150
BEESAT 2 17 Dec 02:57:43 03:00:19 16° 34° (NNE) 03:02:54 435.950
ITUPSAT 1 17 Dec 03:09:09 03:13:29 35° 263° (W) 03:17:51 437.325
CUBESAT XI-V 17 Dec 03:25:10 03:29:48 63° 259° (W) 03:34:29 437.345
KKS-1 17 Dec 03:26:11 03:30:06 31° 67° (ENE) 03:34:02 437.445
MOZHAYETS 4 17 Dec 03:34:42 03:37:09 14° 271° (W) 03:39:37
BEESAT 3 17 Dec 03:48:09 03:52:06 79° 235° (SW) 03:55:58 437.485
M-CUBED/EXP-1 PRIME 17 Dec 03:49:57 03:54:30 83° 111° (ESE) 03:58:43 437.505
Gurwin Techsat 1B 17 Dec 04:00:32 04:01:36 11° 308° (NW) 04:02:40 435.225
STARS 17 Dec 04:01:37 04:05:24 29° 66° (ENE) 04:09:11 437.465
ITAMSAT 1 17 Dec 04:12:15 04:17:24 65° 289° (WNW) 04:22:30 435.822/435.867
DOVE 4 17 Dec 04:14:47 04:18:47 32° 95° (E) 04:22:36 437.250
PCSat 17 Dec 04:14:57 04:18:51 20° 253° (WSW) 04:22:45 145.827
AO-85 17 Dec 04:23:18 04:27:25 30° 41° (NE) 04:31:47 145.980
YUBILEINY 17 Dec 04:24:39 04:32:15 31° 296° (WNW) 04:39:55 435.215
AO-7 17 Dec 04:27:00 04:35:13 62° 296° (WNW) 04:43:25 .
BEESAT 2 17 Dec 04:34:34 04:38:38 89° 70° (ENE) 04:42:37 435.950
FO-29 17 Dec 04:50:32 04:53:29 13° 45° (NE) 04:56:25 435.910
STRAND 1 17 Dec 04:54:23 04:57:36 17° 58° (ENE) 05:00:48 437.568
LilacSat-2 17 Dec 04:55:06 04:57:29 16° 91° (E) 04:59:53 437.200
NUDT-PHONESAT 17 Dec 04:59:40 05:00:12 10° 88° (E) 05:00:44 437.300
KKS-1 17 Dec 05:02:41 05:06:37 30° 264° (W) 05:10:34 437.445
XW-2D 17 Dec 05:05:20 05:08:08 19° 92° (E) 05:10:56 145.860 - 145.880
KAITUO 1B 17 Dec 05:07:01 05:09:02 14° 90° (E) 05:11:02 145.475/437.950
XW-2B 17 Dec 05:20:56 05:24:16 27° 95° (E) 05:27:32 145.730 - 145.750
M-CUBED/EXP-1 PRIME 17 Dec 05:25:42 05:28:10 15° 308° (NW) 05:30:34 437.505
XW-2F 17 Dec 05:30:25 05:33:54 32° 96° (E) 05:37:21 145.980 - 146.000
STARS 17 Dec 05:37:46 05:41:40 31° 263° (W) 05:45:36 437.465
CUTE 1.7 + AOD 2 17 Dec 05:47:20 05:49:58 16° 90° (E) 05:52:35 437.475
XW-2C 17 Dec 05:48:10 05:52:00 56° 101° (E) 05:55:46 145.795 - 145.815
DOVE 4 17 Dec 05:52:36 05:56:24 27° 295° (WNW) 06:00:02 437.250
ITAMSAT 1 17 Dec 05:54:29 05:55:53 11° 308° (NW) 05:57:15 435.822/435.867
CUTE-I 17 Dec 05:57:24 06:02:36 51° 100° (E) 06:07:46 437.470
HO-68 17 Dec 06:03:23 06:09:36 31° 94° (E) 06:15:46 435.675
AO-85 17 Dec 06:03:25 06:08:05 52° 239° (WSW) 06:13:02 145.980
NO-84 17 Dec 06:04:50 06:07:50 79° 143° (SE) 06:11:05 435.350 FM
BEESAT 2 17 Dec 06:15:17 06:15:39 10° 252° (WSW) 06:15:59 435.950
AO-7 17 Dec 06:21:16 06:26:23 18° 319° (NW) 06:31:31 .
LilacSat-2 17 Dec 06:28:16 06:32:00 45° 288° (WNW) 06:35:43 437.200
FO-29 17 Dec 06:29:22 06:36:45 47° 65° (ENE) 06:44:04 435.910
NUDT-PHONESAT 17 Dec 06:30:43 06:34:27 66° 286° (WNW) 06:38:10 437.300
STRAND 1 17 Dec 06:31:03 06:36:10 78° 256° (WSW) 06:41:19 437.568
XW-2D 17 Dec 06:38:52 06:42:25 36° 290° (WNW) 06:45:57 145.860 - 145.880
KAITUO 1B 17 Dec 06:39:36 06:43:17 49° 287° (WNW) 06:46:56 145.475/437.950
SEEDS 17 Dec 06:53:21 06:57:28 46° 98° (E) 07:01:32 437.485
XW-2B 17 Dec 06:55:07 06:58:21 26° 292° (WNW) 07:01:34 145.730 - 145.750
UWE-3 17 Dec 06:56:50 07:00:39 29° 96° (E) 07:04:32 435.000/436.395/437.385
CUBEBUG 2 17 Dec 07:02:52 07:07:05 58° 100° (E) 07:11:25 437.445
AAUSAT CUBESAT 2 17 Dec 07:03:54 07:07:27 26° 94° (E) 07:10:57 437.432
XW-2F 17 Dec 07:04:50 07:07:49 22° 294° (WNW) 07:10:48 145.980 - 146.000
ZACube-1 17 Dec 07:15:35 07:19:14 25° 94° (E) 07:22:56 437.345
O/OREOS (USA 219) 17 Dec 07:21:43 07:26:04 43° 108° (ESE) 07:30:24 437.305
CUTE 1.7 + AOD 2 17 Dec 07:21:55 07:26:08 55° 288° (WNW) 07:30:18 437.475
XW-2C 17 Dec 07:23:40 07:25:43 14° 298° (WNW) 07:27:45 145.795 - 145.815
Oscar 11 17 Dec 07:30:34 07:33:54 21° 92° (E) 07:37:12 .
CUTE-I 17 Dec 07:38:03 07:42:21 25° 298° (WNW) 07:46:38 437.470
NO-84 17 Dec 07:42:42 07:45:24 25° 345° (NNW) 07:48:17 435.350 FM
AO-73 17 Dec 07:47:21 07:51:35 46° 99° (E) 07:55:53 145.935
TIGRISAT 17 Dec 07:49:23 07:52:47 24° 65° (ENE) 07:56:11 435.000
HO-68 17 Dec 07:50:42 07:57:43 59° 293° (WNW) 08:04:41 435.675
UNISAT 6 17 Dec 07:53:11 07:56:49 28° 67° (ENE) 08:00:27 437.425
XW-2A 17 Dec 07:54:24 07:57:51 78° 284° (WNW) 08:01:16 145.665 - 145.685
FO-29 17 Dec 08:14:20 08:21:43 45° 264° (W) 08:29:09 435.910
STRAND 1 17 Dec 08:15:36 08:16:11 10° 274° (W) 08:16:46 437.568
SEEDS 17 Dec 08:29:47 08:32:49 19° 296° (WNW) 08:35:51 437.485
UWE-3 17 Dec 08:33:17 08:37:04 30° 292° (WNW) 08:40:56 435.000/436.395/437.385
AAUSAT CUBESAT 2 17 Dec 08:39:13 08:42:53 30° 292° (WNW) 08:46:31 437.432
CUBEBUG 2 17 Dec 08:40:37 08:43:19 17° 297° (WNW) 08:46:02 437.445
Max Valier Satellite 17 Dec 08:47:34 08:50:09 18° 92° (E) 08:52:45 145.860
ZACube-1 17 Dec 08:51:35 08:55:34 35° 291° (WNW) 08:59:37 437.345
O/OREOS (USA 219) 17 Dec 09:01:51 09:05:39 25° 307° (NW) 09:09:26 437.305
AIST 2D 17 Dec 09:03:53 09:05:52 14° 64° (ENE) 09:07:51 435.315
Oscar 11 17 Dec 09:06:05 09:10:12 42° 290° (WNW) 09:14:18 .
EO-88 17 Dec 09:08:29 09:11:18 20° 93° (E) 09:14:06 145.990 - 145.960
DELFI C3 17 Dec 09:13:08 09:16:59 50° 99° (E) 09:20:48 145.870
PRISM 17 Dec 09:13:41 09:17:46 58° 73° (ENE) 09:21:52 437.425
NO-84 17 Dec 09:20:53 09:23:30 20° 6° (N) 09:26:16 435.350 FM
AO-73 17 Dec 09:24:17 09:27:31 21° 296° (WNW) 09:30:48 145.935
TIGRISAT 17 Dec 09:25:22 09:29:18 36° 263° (W) 09:33:15 435.000
UNISAT 6 17 Dec 09:29:41 09:33:28 30° 264° (W) 09:37:16 437.425
EO-79 17 Dec 09:32:24 09:34:28 13° 60° (ENE) 09:36:31 145.935-145.965
HO-68 17 Dec 09:40:27 09:44:01 15° 315° (NW) 09:47:33 435.675
POLYITAN 1 17 Dec 09:54:52 09:58:04 22° 64° (ENE) 10:01:18 437.675
ISS 17 Dec 09:57:55 10:00:28 21° 138° (SE) 10:03:00 437.550
ESTCUBE 1 17 Dec 10:05:15 10:07:02 12° 88° (E) 10:08:49 437.505/2401.250
QB50P2 17 Dec 10:19:56 10:23:53 42° 70° (ENE) 10:27:51 145.880/145.840
DUCHIFAT 1 17 Dec 10:20:30 10:24:09 30° 67° (ENE) 10:27:47 145.980
Max Valier Satellite 17 Dec 10:20:39 10:24:06 36° 289° (WNW) 10:27:33 145.860
AIST 2D 17 Dec 10:35:18 10:38:40 43° 262° (W) 10:42:04 435.315
nSIGHT-1 17 Dec 10:40:36 10:43:45 59° 148° (SSE) 10:46:57 .
EO-88 17 Dec 10:41:43 10:44:59 30° 290° (WNW) 10:48:13 145.990 - 145.960
NANOSAT C BR1 17 Dec 10:48:07 10:52:15 67° 73° (ENE) 10:56:24 145.865
DELFI C3 17 Dec 10:48:55 10:51:20 16° 297° (WNW) 10:53:43 145.870
BUGSAT 1 17 Dec 10:50:29 10:52:59 16° 62° (ENE) 10:55:30 437.445
PRISM 17 Dec 10:51:10 10:53:24 14° 270° (W) 10:55:38 437.425
Oscar 19 17 Dec 10:57:57 11:01:11 17° 57° (ENE) 11:04:25 437.125/150
NO-84 17 Dec 10:58:00 11:01:24 42° 26° (NNE) 11:05:05 435.350 FM
LO-87 17 Dec 11:02:13 11:05:43 60° 100° (E) 11:09:14 145.935 - 145.965
EO-79 17 Dec 11:05:30 11:09:40 71° 258° (WSW) 11:13:52 145.935-145.965
VELOX 1 17 Dec 11:25:37 11:27:13 12° 88° (E) 11:28:50 145.980
RS-15 17 Dec 11:25:38 11:26:56 10° 89° (E) 11:28:12 29.354- 29.394
POLYITAN 1 17 Dec 11:29:42 11:33:38 39° 262° (W) 11:37:34 437.675
ISS 17 Dec 11:33:22 11:36:40 72° 336° (NNW) 11:39:57 437.550
ESTCUBE 1 17 Dec 11:39:50 11:44:24 79° 285° (WNW) 11:48:55 437.505/2401.250
SPROUT 17 Dec 11:41:13 11:44:53 28° 95° (E) 11:48:33 437.525
AO-7 17 Dec 11:48:12 11:53:10 18° 41° (NE) 11:58:07 .
DUCHIFAT 1 17 Dec 11:56:15 11:59:47 27° 265° (W) 12:03:21 145.980
QB50P2 17 Dec 11:56:48 11:59:51 19° 268° (W) 12:02:55 145.880/145.840
AO-91 17 Dec 11:59:14 12:03:44 46° 72° (ENE) 12:07:47 145.960
Gurwin Techsat 1B 17 Dec 12:01:49 12:06:47 42° 67° (ENE) 12:11:47 435.225
nSIGHT-1 17 Dec 12:17:02 12:20:06 38° 347° (NNW) 12:23:09 .
BUGSAT 1 17 Dec 12:24:03 12:27:58 51° 260° (W) 12:31:54 437.445
NANOSAT C BR1 17 Dec 12:26:39 12:28:24 12° 271° (W) 12:30:09 145.865
YUBILEINY 17 Dec 12:32:56 12:41:07 39° 68° (ENE) 12:49:11 435.215
Oscar 19 17 Dec 12:34:43 12:39:51 79° 256° (WSW) 12:45:04 437.125/150
NO-84 17 Dec 12:35:12 12:38:40 38° 223° (SW) 12:42:23 435.350 FM
LO-87 17 Dec 12:37:28 12:38:39 11° 298° (WNW) 12:39:50 145.935 - 145.965
50 SAT 17 Dec 12:46:55 12:48:38 14° 93° (E) 12:50:20 437.505
VELOX 1 17 Dec 12:59:48 13:04:14 77° 284° (WNW) 13:08:36 145.980
M-CUBED/EXP-1 PRIME 17 Dec 13:04:09 13:07:32 21° 56° (ENE) 13:11:01 437.505
ISS 17 Dec 13:10:28 13:13:29 32° 355° (N) 13:16:30 437.550
SPROUT 17 Dec 13:17:02 13:20:45 30° 293° (WNW) 13:24:28 437.525
ESTCUBE 1 17 Dec 13:19:13 13:20:24 11° 304° (NW) 13:21:36 437.505/2401.250
UKube-1 17 Dec 13:23:38 13:27:18 27° 95° (E) 13:30:57 .
RS-15 17 Dec 13:24:35 13:36:12 51° 112° (ESE) 13:47:43 29.354- 29.394
SO-50 17 Dec 13:29:55 13:32:34 16° 110° (ESE) 13:35:15 436.795
AO-7 17 Dec 13:36:11 13:44:17 60° 63° (ENE) 13:52:26 .
AO-91 17 Dec 13:36:51 13:40:19 20° 266° (W) 13:43:33 145.960
Gurwin Techsat 1B 17 Dec 13:42:15 13:46:51 29° 265° (W) 13:51:29 435.225
DX 1 17 Dec 13:45:37 13:49:58 72° 103° (ESE) 13:54:17 434.975-435.025
MOZHAYETS 4 17 Dec 13:48:49 13:50:59 13° 88° (E) 13:53:08
nSIGHT-1 17 Dec 13:53:48 13:56:47 33° 7° (N) 13:59:45 .
ITAMSAT 1 17 Dec 13:54:02 13:58:48 38° 66° (ENE) 14:03:35 435.822/435.867
50 SAT 17 Dec 14:17:49 14:20:41 32° 289° (WNW) 14:23:30 437.505
Oscar 19 17 Dec 14:18:58 14:20:01 11° 274° (W) 14:21:04 437.125/150
YUBILEINY 17 Dec 14:29:44 14:38:13 53° 270° (W) 14:46:35 435.215
BEESAT 17 Dec 14:36:05 14:40:02 25° 94° (E) 14:43:57 436.000
M-CUBED/EXP-1 PRIME 17 Dec 14:37:09 14:41:30 55° 255° (WSW) 14:46:03 437.505
VELOX 1 17 Dec 14:39:21 14:39:51 10° 304° (NW) 14:40:22 145.980
ISS 17 Dec 14:47:16 14:50:27 43° 16° (NNE) 14:53:37 437.550
UKube-1 17 Dec 14:59:29 15:03:20 32° 293° (WNW) 15:07:10 .
ITUPSAT 1 17 Dec 15:06:09 15:10:47 47° 100° (E) 15:15:23 437.325
SO-50 17 Dec 15:08:01 15:12:28 71° 309° (NW) 15:17:00 436.795
CUBESAT XI-V 17 Dec 15:19:10 15:23:10 27° 94° (E) 15:27:07 437.345
DOVE 4 17 Dec 15:21:33 15:26:33 48° 71° (ENE) 15:31:23 437.250
DX 1 17 Dec 15:23:17 15:25:35 14° 301° (WNW) 15:27:53 434.975-435.025
MOZHAYETS 4 17 Dec 15:24:02 15:28:40 76° 286° (WNW) 15:33:17
AO-7 17 Dec 15:30:00 15:37:26 36° 264° (W) 15:44:57 .
nSIGHT-1 17 Dec 15:30:02 15:33:16 87° 25° (NNE) 15:36:29 .
ITAMSAT 1 17 Dec 15:33:40 15:38:18 32° 264° (W) 15:42:58 435.822/435.867
RS-15 17 Dec 15:36:23 15:48:36 62° 317° (NW) 16:00:37 29.354- 29.394
LilacSat-2 17 Dec 15:40:25 15:42:06 13° 61° (ENE) 15:43:47 437.200
CUTE-I 17 Dec 15:44:16 15:47:50 18° 58° (ENE) 15:51:23 437.470
XW-2D 17 Dec 15:49:40 15:51:51 15° 63° (ENE) 15:54:02 145.860 - 145.880
O/OREOS (USA 219) 17 Dec 15:50:19 15:53:33 19° 49° (NE) 15:56:46 437.305
KAITUO 1B 17 Dec 15:50:47 15:51:39 11° 60° (ENE) 15:52:32 145.475/437.950
XW-2B 17 Dec 16:04:55 16:07:45 20° 65° (ENE) 16:10:36 145.730 - 145.750
BEESAT 17 Dec 16:13:28 16:17:56 41° 292° (WNW) 16:22:23 436.000
XW-2F 17 Dec 16:13:46 16:16:49 23° 67° (ENE) 16:19:54 145.980 - 146.000
ISS 17 Dec 16:23:48 16:26:58 46° 214° (SW) 16:30:07 437.550
XW-2C 17 Dec 16:31:39 16:35:12 39° 71° (ENE) 16:38:48 145.795 - 145.815
HO-68 17 Dec 16:35:09 16:41:20 32° 58° (ENE) 16:47:29 435.675
CUTE 1.7 + AOD 2 17 Dec 16:42:41 16:45:25 17° 62° (ENE) 16:48:09 437.475
ITUPSAT 1 17 Dec 16:44:34 16:48:20 24° 297° (WNW) 16:52:05 437.325
KKS-1 17 Dec 16:50:08 16:54:19 40° 98° (E) 16:58:28 437.445
SO-50 17 Dec 16:50:51 16:53:45 16° 330° (NNW) 16:56:39 436.795
CUBESAT XI-V 17 Dec 16:56:16 17:00:37 38° 292° (WNW) 17:04:56 437.345
DOVE 4 17 Dec 17:00:10 17:04:24 24° 267° (W) 17:08:31 437.250
MOZHAYETS 4 17 Dec 17:03:55 17:05:00 11° 304° (NW) 17:06:05
nSIGHT-1 17 Dec 17:07:01 17:09:06 16° 224° (SW) 17:11:09 .
NUDT-PHONESAT 17 Dec 17:11:34 17:15:15 78° 76° (ENE) 17:19:00 437.300
LilacSat-2 17 Dec 17:12:03 17:15:51 64° 259° (W) 17:19:42 437.200
PCSat 17 Dec 17:15:10 17:20:01 34° 112° (ESE) 17:24:52 145.827
KAITUO 1B 17 Dec 17:21:17 17:25:02 75° 259° (W) 17:28:50 145.475/437.950
CUTE-I 17 Dec 17:21:54 17:27:16 77° 256° (WSW) 17:32:40 437.470
XW-2D 17 Dec 17:21:55 17:25:36 51° 260° (W) 17:29:22 145.860 - 145.880
STARS 17 Dec 17:23:41 17:27:43 36° 98° (E) 17:31:44 437.465
O/OREOS (USA 219) 17 Dec 17:28:56 17:33:23 61° 249° (WSW) 17:37:46 437.305
XW-2B 17 Dec 17:38:12 17:41:41 35° 263° (W) 17:45:14 145.730 - 145.750
SEEDS 17 Dec 17:47:08 17:51:09 44° 71° (ENE) 17:55:13 437.485
XW-2F 17 Dec 17:47:28 17:50:47 29° 264° (W) 17:54:09 145.980 - 146.000
RS-15 17 Dec 17:53:19 18:04:08 34° 348° (NNW) 18:14:37 29.354- 29.394
AAUSAT CUBESAT 2 17 Dec 17:56:22 17:59:49 25° 66° (ENE) 18:03:16 437.432
UWE-3 17 Dec 17:56:30 18:00:09 31° 68° (ENE) 18:03:49 435.000/436.395/437.385
CUBEBUG 2 17 Dec 18:03:25 18:07:33 64° 74° (ENE) 18:11:39 437.445
XW-2C 17 Dec 18:06:58 18:09:33 17° 268° (W) 18:12:09 145.795 - 145.815
ZACube-1 17 Dec 18:14:07 18:17:33 26° 66° (ENE) 18:21:02 437.345
CUTE 1.7 + AOD 2 17 Dec 18:16:38 18:20:49 56° 260° (W) 18:25:03 437.475
HO-68 17 Dec 18:21:34 18:28:39 61° 258° (WSW) 18:35:47 435.675
KKS-1 17 Dec 18:27:08 18:30:39 24° 296° (WNW) 18:34:10 437.445
XW-2A 17 Dec 18:27:32 18:30:46 48° 73° (ENE) 18:34:03 145.665 - 145.685
Oscar 11 17 Dec 18:27:54 18:31:18 23° 65° (ENE) 18:34:43 .
STRAND 1 17 Dec 18:39:03 18:43:29 29° 95° (E) 18:47:54 437.568
AO-73 17 Dec 18:45:18 18:49:15 47° 71° (ENE) 18:53:17 145.935
PCSat 17 Dec 18:58:09 19:03:18 43° 311° (NW) 19:08:29 145.827
STARS 17 Dec 19:00:19 19:03:53 25° 296° (WNW) 19:07:27 437.465
CUTE-I 17 Dec 19:06:51 19:08:11 11° 274° (W) 19:09:31 437.470
BEESAT 3 17 Dec 19:16:27 19:20:25 72° 125° (SE) 19:24:25 437.485
FO-29 17 Dec 19:22:17 19:28:02 29° 90° (E) 19:33:13 435.910
SEEDS 17 Dec 19:24:00 19:27:03 19° 268° (W) 19:30:07 437.485
Max Valier Satellite 17 Dec 19:29:51 19:31:30 13° 62° (ENE) 19:33:11 145.860
AAUSAT CUBESAT 2 17 Dec 19:31:21 19:35:07 32° 264° (W) 19:38:56 437.432
UWE-3 17 Dec 19:33:12 19:36:38 25° 266° (W) 19:40:06 435.000/436.395/437.385
CUBEBUG 2 17 Dec 19:42:48 19:44:36 12° 271° (W) 19:46:25 437.445
EO-88 17 Dec 19:49:14 19:51:18 15° 63° (ENE) 19:53:21 145.990 - 145.960
ZACube-1 17 Dec 19:50:04 19:53:44 31° 264° (W) 19:57:29 437.345
DELFI C3 17 Dec 20:00:26 20:04:11 41° 71° (ENE) 20:07:57 145.870
XW-2A 17 Dec 20:02:47 20:03:45 11° 270° (W) 20:04:43 145.665 - 145.685
Oscar 11 17 Dec 20:03:10 20:07:13 39° 263° (W) 20:11:19 .
BEESAT 2 17 Dec 20:04:46 20:08:45 65° 123° (ESE) 20:12:47 435.950
RS-15 17 Dec 20:09:50 20:20:53 38° 22° (NNE) 20:31:23 29.354- 29.394
HO-68 17 Dec 20:16:28 20:17:51 11° 277° (W) 20:19:14 435.675
SO-50 17 Dec 20:17:21 20:18:53 11° 21° (NNE) 20:20:25 436.795
STRAND 1 17 Dec 20:18:02 20:22:46 40° 293° (WNW) 20:27:29 437.568
AO-85 17 Dec 20:21:15 20:24:26 24° 114° (ESE) 20:27:46 145.980
AO-73 17 Dec 20:23:04 20:25:46 17° 269° (W) 20:28:30 145.935
PCSat 17 Dec 20:45:41 20:48:12 13° 335° (NNW) 20:50:41 145.827
BEESAT 3 17 Dec 20:55:32 20:58:24 18° 324° (NW) 21:01:15 437.485
